www.pogodaiklimat.ru

ПОГОДА в Onslow Airport

  • Прогноз погоды в Onslow Airport
  • Монитор погоды в Onslow Airport
  • Климат города

АРХИВ ПОГОДЫ в Onslow Airport

Время (UTC), дата Ветер
(напр.,м/с)
 
Видим.   Явления Облачность Т
(С)
Тd
(С)
f
(%)
Тe
(С)
Тes
(С)
Комфортность P
(гПа)
Po
(гПа)
Тmin
(С)
Tmax
(С)
R
(мм)
S
(см)
06 13.01 СЗ 8 н/о н/о +35.0 +16.8 34 +38 +38 очень
душно
1002.6 1001.4
07 13.01 З 9 н/о н/о +34.7 +16.1 33 +37 +37 очень
душно
1002.1 1000.9
09 13.01 СЗ 7 н/о н/о +32.7 +19.2 45 +38 +38 очень
душно
1002.0 1000.8
10 13.01 З 7 н/о н/о +30.9 +19.6 51 +37 +37 очень
душно
1002.5 1001.3
12 13.01 СЗ 4 н/о н/о +28.9 +20.1 59 +35 +35 очень
душно
1004.6 1003.4
13 13.01 СЗ 5 н/о н/о +28.0 +21.8 69 +36 +36 очень
душно
1004.6 1003.4 +40.3
15 13.01 З 7 н/о н/о +27.0 +22.0 74 +35 +35 очень
душно
1004.5 1003.3
16 13.01 З 6 н/о н/о +27.1 +19.4 63 +33 +33 очень
душно
1004.5 1003.3
18 13.01 З 5 н/о н/о +25.8 +18.7 65 +31 +31 очень
душно
1004.1 1002.9
19 13.01 штиль 0 н/о н/о +25.5 +19.2 68 +31 +31 очень
душно
1004.5 1003.3
21 13.01 Ю 2 н/о н/о +24.9 +19.1 70 +30 +30 душно 1005.0 1003.8
22 13.01 СВ 2 н/о н/о +25.2 +19.8 72 +31 +31 очень
душно
1005.6 1004.4
00 14.01 СВ 3 н/о н/о +29.0 +20.2 59 +35 +35 очень
душно
1005.9 1004.7
01 14.01 С 4 н/о н/о +29.7 +20.3 57 +36 +36 очень
душно
1006.3 1005.1 +24.9
03 14.01 С 6 н/о н/о +33.3 +21.5 50 +41 +41 опасность
перегрева
1006.1 1004.9
04 14.01 С 5 н/о н/о +33.4 +21.2 49 +41 +41 опасность
перегрева
1005.6 1004.4
06 14.01 СЗ 7 н/о н/о +33.0 +21.5 51 +41 +41 опасность
перегрева
1004.1 1002.9
07 14.01 СЗ 8 н/о н/о +32.5 +19.7 47 +38 +38 очень
душно
1003.2 1002.0
09 14.01 СЗ 9 н/о н/о +30.6 +20.8 56 +38 +38 очень
душно
1002.2 1001.0
10 14.01 З 8 н/о н/о +28.1 +21.4 67 +36 +36 очень
душно
1003.0 1001.8
12 14.01 СЗ 5 н/о н/о +27.4 +21.7 71 +35 +35 очень
душно
1005.6 1004.4
13 14.01 СЗ 4 н/о н/о +27.0 +21.7 73 +35 +35 очень
душно
1006.8 1005.6 +35.7
15 14.01 ЮЗ 2 н/о н/о +26.4 +21.8 76 +34 +34 очень
душно
1007.7 1006.5
16 14.01 СЗ 3 н/о туман местами н/о +25.4 +22.7 85 +33 +33 очень
душно
1006.4 1005.2
18 14.01 З 3 н/о н/о +25.8 +22.1 80 +33 +33 очень
душно
1005.3 1004.1
19 14.01 СЗ 2 н/о {туман} н/о +26.0 +22.1 79 +34 +34 очень
душно
1005.3 1004.1
21 14.01 СЗ 2 н/о н/о +26.0 +23.1 84 +35 +35 очень
душно
1005.6 1004.4
22 14.01 СЗ 3 н/о н/о +26.0 +23.5 86 +35 +35 очень
душно
1005.6 1004.4
00 15.01 С 3 н/о н/о +28.3 +23.4 75 +38 +38 очень
душно
1006.2 1005.0
01 15.01 С 4 н/о н/о +29.0 +23.7 73 +40 +40 очень
душно
1006.5 1005.3 +25.0
03 15.01 С 5 н/о н/о +31.3 +23.7 64 +42 +42 опасность
перегрева
1006.0 1004.8
04 15.01 С 6 н/о н/о +30.8 +23.2 64 +41 +41 опасность
перегрева
1005.7 1004.5
06 15.01 С 7 н/о н/о +31.0 +23.4 64 +42 +42 опасность
перегрева
1005.1 1003.9
07 15.01 С 7 н/о н/о +30.9 +23.0 63 +41 +41 опасность
перегрева
1004.5 1003.3
09 15.01 СЗ 7 н/о н/о +29.8 +22.8 66 +39 +39 очень
душно
1004.5 1003.3
10 15.01 С 7 н/о н/о +28.6 +22.3 69 +37 +37 очень
душно
1004.8 1003.6
12 15.01 СЗ 5 н/о н/о +27.3 +22.3 74 +36 +36 очень
душно
1006.4 1005.2
13 15.01 СЗ 5 н/о н/о +27.0 +22.2 75 +35 +35 очень
душно
1006.9 1005.7 +32.9
15 15.01 СЗ 4 н/о н/о +26.5 +22.1 77 +34 +34 очень
душно
1007.2 1006.0
16 15.01 СЗ 4 н/о н/о +26.6 +22.2 77 +35 +35 очень
душно
1006.9 1005.7
18 15.01 З 3 н/о н/о +26.4 +22.5 79 +35 +35 очень
душно
1005.9 1004.7
19 15.01 СЗ 3 н/о н/о +26.3 +22.4 79 +34 +34 очень
душно
1005.6 1004.4
21 15.01 З 3 н/о н/о +26.2 +22.1 78 +34 +34 очень
душно
1005.7 1004.5
22 15.01 З 3 н/о н/о +26.2 +22.1 78 +34 +34 очень
душно
1006.3 1005.1
00 16.01 С 2 н/о н/о +28.1 +21.6 68 +36 +36 очень
душно
1006.9 1005.7
01 16.01 С 4 н/о н/о +28.8 +22.1 67 +37 +37 очень
душно
1007.1 1005.9
03 16.01 СЗ 5 н/о н/о +30.2 +21.3 59 +38 +38 очень
душно
1006.7 1005.5
04 16.01 СЗ 5 н/о н/о +31.5 +21.9 57 +40 +40 очень
душно
1006.1 1004.9
06 16.01 СЗ 6 н/о н/о +30.5 +21.9 60 +39 +39 очень
душно
1005.4 1004.2
07 16.01 СЗ 7 н/о н/о +30.3 +21.9 61 +39 +39 очень
душно
1005.1 1003.9
09 16.01 СЗ 8 н/о н/о +29.2 +21.2 62 +37 +37 очень
душно
1004.6 1003.4
10 16.01 СЗ 8 н/о н/о +27.8 +21.6 69 +36 +36 очень
душно
1004.7 1003.5
12 16.01 З 5 н/о н/о +26.7 +21.5 73 +34 +34 очень
душно
1006.1 1004.9
13 16.01 З 5 н/о н/о +26.5 +21.9 76 +34 +34 очень
душно
1006.6 1005.4
15 16.01 З 4 н/о н/о +26.3 +22.6 80 +35 +35 очень
душно
1006.9 1005.7
16 16.01 СЗ 3 н/о н/о +26.0 +22.7 82 +34 +34 очень
душно
1006.2 1005.0

 

Местоположение метеостанции Onslow Airport (Западная Австралия, Австралия): широта -21.67 долгота 115.12 высота над уровнем моря 4 м.

В архиве по умолчанию представлена погода в Onslow Airport за последнюю неделю. Архивные данные за месяц целиком и за предыдущие месяцы, начиная с января 2011 года, Вы можете получить, выбрав интересующий диапазон дат из раскрывающегося списка и нажав кнопку "Ввод!".

Внимание! Время в таблицах - всемирное. Для получения местного времени необходимо прибавить поправку, которая в Onslow Airport равна 8 ч.

Ветер - указаны скорость ветра в м/с - средняя за 10 мин, порывы в срок и между сроками (в фигурных скобках) и направление, откуда дует ветер: С - северный, СВ - северо-восточный, В - восточный, ЮВ - юго-восточный, Ю - южный, ЮЗ - юго-западный, З - западный, СЗ - северо-западный.
Видимость - горизонтальная дальность видимости в метрах или километрах. При видимости от 1 до 10 км при отсутствии осадков обычно наблюдается дымка, при ухудшении видимости до 1 км и менее - туман. В сухую погоду видимость может ухудшаться дымом, пылью или мглою.
Явления - указаны атмосферные явления, наблюдавшиеся в срок или в последний час перед сроком; фигурными скобками обозначены явления, наблюдавшиеся между сроками (за 1-3 часа до срока); квадратными скобками обозначены град или гололедные отложения с указанием их диаметра в мм.
Облачность - указаны через наклонную черту общая и нижняя облачность в баллах и высота нижней границы облаков в метрах; квадратными скобками обозначены формы облаков: Ci - перистые, Cs - перисто-слоистые, Cc - перисто-кучевые, Ac - высококучевые, As - высокослоистые, Sc - слоисто-кучевые, Ns - слоисто-дождевые, Cu - кучевые, Cb - кучево-дождевые. Подробнее классификацию облаков см. в Атласе облаков (PDF).
T - Температура воздуха - температура, измеренная на высоте 2 м над землей.
Td - Температура точки росы - температура, при понижении до которой содержащийся в воздухе водяной пар достигнет насыщения.
f - Относительная влажность воздуха - влажноcть воздуха, измеренная на высоте 2 м над землей.
Te - Эффективная температура - температура, которую ощущает одетый по сезону человек в тени. Характеристика душности погоды. При расчете учитывается влияние влажности воздуха и скорости ветра на теплоощущения человека.
Tes - Эффективная температура на солнце - температура, которую ощущает человек, с поправкой на солнечный нагрев. Характеристика знойности погоды. Зависит от высоты солнца над горизонтом, облачности и скорости ветра. Ночью, в пасмурную погоду, а также при ветре 12 м/с и более поправка равна нулю.
P - Атмосферное давление - приведенное к уровню моря атмосферное давление.
Po - Атмосферное давление - измеренное на уровне метеостанции атмосферное давление.
Tmin - Минимальная температура - минимум температуры воздуха на высоте 2 м над землей.
Tmax - Максимальная температура - максимум температуры воздуха на высоте 2 м над землей.
R - Количество осадков - Количество выпавших осадков, мм. При наведении курсора мыши на число - период времени, за который выпало указанное количество осадков.
S - Снежный покров - Высота снежного покрова, см. При наведении курсора мыши на число - состояние снежного покрова и степень покрытия местности в баллах.